This is the latest recevied weather packets stored in our database for station/object KR8N. If no packets are shown the sender has not sent any weather packets the latest 10 day(s).
| Time | Temp. | Humidity | Pressure | Rain* | Wind** | Luminosity | Snow |
|---|---|---|---|---|---|---|---|
| 1777311183 | 20.56° C | 44% | 1023.4 hPa | 0 mm | - | 889 W/m² | - |
| 1777310881 | 20.56° C | 42% | 1023.4 hPa | 0 mm | - | 883 W/m² | - |
| 1777310578 | 20.56° C | 44% | 1023.6 hPa | 0 mm | - | 898 W/m² | - |
| 1777310276 | 20.56° C | 42% | 1023.5 hPa | 0 mm | - | 900 W/m² | - |
| 1777309973 | 20.56° C | 45% | 1023.6 hPa | 0 mm | - | 905 W/m² | - |
| 1777309671 | 20° C | 47% | 1023.9 hPa | 0 mm | - | 899 W/m² | - |
| 1777309368 | 20° C | 45% | 1023.7 hPa | 0 mm | - | 886 W/m² | - |
| 1777309066 | 20° C | 46% | 1024 hPa | 0 mm | - | 888 W/m² | - |
| 1777308763 | 19.44° C | 48% | 1024 hPa | 0 mm | - | 885 W/m² | - |
| 1777308457 | 19.44° C | 46% | 1024 hPa | 0 mm | - | 886 W/m² | - |
| 1777308154 | 19.44° C | 47% | 1024 hPa | 0 mm | - | 874 W/m² | - |
| 1777307850 | 19.44° C | 46% | 1024.1 hPa | 0 mm | - | 890 W/m² | - |
| 1777307548 | 19.44° C | 47% | 1024.1 hPa | 0 mm | - | 874 W/m² | - |
| 1777307244 | 18.89° C | 51% | 1024.2 hPa | 0 mm | - | 867 W/m² | - |
| 1777306942 | 18.89° C | 49% | 1024 hPa | 0 mm | - | 864 W/m² | - |
| 1777306639 | 18.89° C | 47% | 1024 hPa | 0 mm | - | 849 W/m² | - |
| 1777306335 | 18.33° C | 51% | 1024 hPa | 0 mm | - | 851 W/m² | - |
| 1777306030 | 18.33° C | 52% | 1024 hPa | 0 mm | - | 850 W/m² | - |
| 1777305728 | 18.33° C | 49% | 1024 hPa | 0 mm | - | 847 W/m² | - |
| 1777305423 | 17.78° C | 50% | 1024 hPa | 0 mm | - | 812 W/m² | - |
| 1777305123 | 17.22° C | 54% | 1024.1 hPa | 0 mm | - | 822 W/m² | - |
| 1777304818 | 17.22° C | 52% | 1024.4 hPa | 0 mm | - | 794 W/m² | - |
| 1777304515 | 17.22° C | 53% | 1024.2 hPa | 0 mm | - | 780 W/m² | - |
| 1777304213 | 17.22° C | 51% | 1024.3 hPa | 0 mm | - | 786 W/m² | - |
| 1777303909 | 16.67° C | 56% | 1024.1 hPa | 0 mm | - | 778 W/m² | - |
* Rain latest hour (hover to see other rain measurements)
** Current wind speed in m/s (hover to see current wind gust speed)